GEO-KOMPSAT-2B

Last updated on Fri Oct 04 2024 00:02:42 GMT+0000 (Coordinated Universal Time)

1 45246U 20013B 24276.87549473 -.00000342 00000+0 00000+0 0 9993 2 45246 0.0479 329.1331 0001709 276.8177 209.5607 1.00267728 17044
UTC large
Height (km)
Speed (km/s)
/
Latitude / Longitude
Inclination (degrees)
Orbital Period (minutes)
Azimuth
Elevation
Range (km)
Doppler Factor

Next 0 passes for location: London (51.5072 / 0.1276)

Sorry there are no passes over London.